Aérodrome :
LOGIN :

S'inscrire | Disclaimer

   EN    FR    IT 

 










Légende :    VFR   VFR Marginal   IFR   IFR Intensif   IFR Très Intensif
Visi : 
Plafond : 
>= 8 km
>= 3000ft
5 à 8 km
1000 à 3000 ft
1500m à 5 km
500 à 1000 ft
800 à 1500m
200 à 500 ft
< 800m
< 200 ft
Symboles :   Orages  Brouillard  Fortes neiges  Fortes précipitations  Vent > 20 kt
SIGMETs :   Divers  Orages  Givrage  Turbulence  Onde Orograph.  Cendres Volcan.







- Altitude de l'aérodrome : 154 ft
- Code IATA : SZZ


EPSC - Szczecin Goleniow

DERNIER METAR :
  • 231300Z 30014KT 270V330 CAVOK 16/07 Q1017

METARs EXPIRÉS :
  • 231230Z 29013KT 250V330 CAVOK 17/06 Q1017
  • 231200Z 31013G23KT 290V350 CAVOK 16/05 Q1017
  • 231130Z 31010KT 260V350 CAVOK 16/06 Q1017
  • 231100Z 30011KT 260V340 9999 FEW034 15/07 Q1017
  • 231030Z 31014KT 9999 FEW035 15/07 Q1017

TAF TAF EPSC
Valide du 23 à 12h jusqu'au 24 à 12h UTC


231130Z 2312/2412 32010KT CAVOK
TEMPO 2317/2322 VRB02KT
BECMG 2319/2321 20004KT
BECMG 2408/2410 22014KT
Pas de NOTAMs connus pour ce terrain.



MET'MAP, la Météo Aéronautique d'un coup d'oeil ! - Copyright ORBIFLY Décembre 2007 - Disclaimer

ORBIFLY MET'MAP TEAM :

Programmation & Développement : Alexandra Zaïnal
Conception & Développement : Baudouin d'Aumeries
Co-Programmation & Développement : Marc-Olivier Méhu
Soutien technique & logistique : Manuel Goepfert

Contact : metmap@orbifly.com




SOURCES & CREDITS :

   NOAA